Lebanon, Oregon, United States (97355)
Lat: 44.54N, Lon: 122.91W
Wx Zone: ORZ008
Local Info
Past Weather Observations for Today

NOTE: This archive is for the closest National Weather Service station to Lebanon. Information may differ from the station used for current weather conditions.

Click here for Long-term Archive

Time Weather Temperature Dewpoint Humidity Pressure Winds Precip Visibility
20:15
Mostly Cloudy
45°F / 7°C 43°F / 6°C 93% 30.3 in
(1026 mb)
Calm - 10SM
19:55
Overcast
46°F / 8°C 41°F / 5°C 82% 30.27 in
(1025 mb)
Calm - 10SM
19:35
Overcast
46°F / 8°C 41°F / 5°C 82% 30.27 in
(1025 mb)
NW 3.5 mph
(NW 6 kph)
- 10SM
19:15
Mostly Cloudy
46°F / 8°C 43°F / 6°C 87% 30.27 in
(1025 mb)
Calm - 10SM
18:55
Mostly Cloudy
46°F / 8°C 39°F / 4°C 76% 30.27 in
(1025 mb)
Calm - 10SM
18:35
Clear
46°F / 8°C 39°F / 4°C 76% 30.27 in
(1025 mb)
S 3.5 mph
(S 6 kph)
- 10SM
18:15
Clear
46°F / 8°C 41°F / 5°C 82% 30.27 in
(1025 mb)
NW 4.6 mph
(NW 7 kph)
- 10SM
17:55
Partly Cloudy
48°F / 9°C 43°F / 6°C 82% 30.24 in
(1024 mb)
NW 6.9 mph
(NW 11 kph)
- 10SM
17:35
Partly Cloudy
48°F / 9°C 43°F / 6°C 82% 30.24 in
(1024 mb)
NW 5.8 mph
(NW 9 kph)
- 10SM
17:15
Partly Cloudy
48°F / 9°C 43°F / 6°C 82% 30.24 in
(1024 mb)
W 5.8 mph
(W 9 kph)
- 10SM
16:55
Mostly Cloudy
50°F / 10°C 45°F / 7°C 82% 30.24 in
(1024 mb)
NW 5.8 mph
(NW 9 kph)
0.01 in
(0.25 mm)
5SM
16:35
Mostly Cloudy
52°F / 11°C 43°F / 6°C 72% 30.24 in
(1024 mb)
W 6.9 mph
(W 11 kph)
- 10SM
16:15
Clear
50°F / 10°C 41°F / 5°C 71% 30.24 in
(1024 mb)
SSW 10.4 mph
(SSW 17 kph)
- 10SM
15:35
Clear
52°F / 11°C 43°F / 6°C 72% 30.24 in
(1024 mb)
SSW 9.2 mph
(SSW 15 kph)
- 10SM
15:15
Clear
54°F / 12°C 43°F / 6°C 67% 30.24 in
(1024 mb)
SSW 10.4 mph
(SSW 17 kph)
- 10SM
14:55
Partly Cloudy
54°F / 12°C 45°F / 7°C 72% 30.24 in
(1024 mb)
SSW 9.2 mph
(SSW 15 kph)
0.01 in
(0.25 mm)
10SM
14:35
Overcast
52°F / 11°C 45°F / 7°C 77% 30.24 in
(1024 mb)
W 11.5 mph
(W 19 kph)
0.01 in
(0.25 mm)
10SM
14:15
Overcast
50°F / 10°C 43°F / 6°C 76% 30.24 in
(1024 mb)
SSW 9.2 mph
(SSW 15 kph)
0.01 in
(0.25 mm)
10SM
13:55
Overcast
52°F / 11°C 43°F / 6°C 72% 30.24 in
(1024 mb)
S 8.1 mph
(S 13 kph)
- 10SM
13:35
Mostly Cloudy
50°F / 10°C 43°F / 6°C 76% 30.24 in
(1024 mb)
SSW 5.8 mph
(SSW 9 kph)
- 10SM
13:15
Clear
50°F / 10°C 43°F / 6°C 76% 30.24 in
(1024 mb)
Calm - 10SM
12:55
Mostly Cloudy
46°F / 8°C 43°F / 6°C 87% 30.24 in
(1024 mb)
SSW 4.6 mph
(SSW 7 kph)
0.04 in
(1.02 mm)
10SM
12:35
Overcast
46°F / 8°C 43°F / 6°C 87% 30.24 in
(1024 mb)
Calm 0.04 in
(1.02 mm)
10SM
12:15
Mostly Cloudy
45°F / 7°C 43°F / 6°C 93% 30.24 in
(1024 mb)
WNW 4.6 mph
(WNW 7 kph)
0.03 in
(0.76 mm)
10SM
11:55
Mostly Cloudy
54°F / 12°C 45°F / 7°C 72% 30.24 in
(1024 mb)
SW 6.9 mph
(SW 11 kph)
- 10SM
11:35
Mostly Cloudy
52°F / 11°C 43°F / 6°C 72% 30.21 in
(1023 mb)
S 8.1 mph
(S 13 kph)
- 10SM
11:15
Mostly Cloudy
52°F / 11°C 43°F / 6°C 72% 30.21 in
(1023 mb)
SSE 6.9 mph
(SSE 11 kph)
- 10SM
10:55
Mostly Cloudy
48°F / 9°C 43°F / 6°C 82% 30.21 in
(1023 mb)
SSE 3.5 mph
(SSE 6 kph)
- 10SM
10:35
Mostly Cloudy
48°F / 9°C 41°F / 5°C 76% 30.21 in
(1023 mb)
W 3.5 mph
(W 6 kph)
- 10SM
10:15
Mostly Cloudy
48°F / 9°C 43°F / 6°C 82% 30.21 in
(1023 mb)
SSE 4.6 mph
(SSE 7 kph)
- 10SM
09:55
Overcast
46°F / 8°C 43°F / 6°C 87% 30.21 in
(1023 mb)
SW 3.5 mph
(SW 6 kph)
0.03 in
(0.76 mm)
10SM
09:35
Mostly Cloudy
46°F / 8°C 39°F / 4°C 76% 30.21 in
(1023 mb)
Calm 0.02 in
(0.51 mm)
10SM
09:15
Overcast
48°F / 9°C 43°F / 6°C 82% 30.18 in
(1022 mb)
SSW 6.9 mph
(SSW 11 kph)
- 10SM
08:55
Overcast
48°F / 9°C 45°F / 7°C 87% 30.18 in
(1022 mb)
S 8.1 mph
(S 13 kph)
- 10SM
08:35
Overcast
48°F / 9°C 45°F / 7°C 87% 30.15 in
(1021 mb)
S 8.1 mph
(S 13 kph)
- 10SM
08:15
Overcast
46°F / 8°C 43°F / 6°C 87% 30.15 in
(1021 mb)
SW 6.9 mph
(SW 11 kph)
- 10SM
07:55
Overcast
48°F / 9°C 43°F / 6°C 82% 30.15 in
(1021 mb)
SW 6.9 mph
(SW 11 kph)
- 10SM
07:35
Overcast
48°F / 9°C 45°F / 7°C 87% 30.15 in
(1021 mb)
SW 4.6 mph
(SW 7 kph)
- 10SM
07:15
Overcast
48°F / 9°C 45°F / 7°C 87% 30.15 in
(1021 mb)
SSE 5.8 mph
(SSE 9 kph)
- 10SM
06:55
Mostly Cloudy
46°F / 8°C 45°F / 7°C 93% 30.15 in
(1021 mb)
SSW 3.5 mph
(SSW 6 kph)
- 10SM
06:35
Clear
45°F / 7°C 41°F / 5°C 87% 30.12 in
(1020 mb)
Calm - 10SM
06:15
Clear
45°F / 7°C 41°F / 5°C 87% 30.12 in
(1020 mb)
Calm - 10SM
05:55
Clear
45°F / 7°C 41°F / 5°C 87% 30.12 in
(1020 mb)
Calm - 10SM
05:35
Clear
46°F / 8°C 41°F / 5°C 82% 30.09 in
(1019 mb)
NW 4.6 mph
(NW 7 kph)
- 10SM
05:15
Partly Cloudy
46°F / 8°C 43°F / 6°C 87% 30.09 in
(1019 mb)
W 3.5 mph
(W 6 kph)
- 10SM
04:55
Mostly Cloudy
48°F / 9°C 43°F / 6°C 82% 30.09 in
(1019 mb)
NW 5.8 mph
(NW 9 kph)
- 10SM
04:35
Mostly Cloudy
48°F / 9°C 45°F / 7°C 87% 30.09 in
(1019 mb)
SW 4.6 mph
(SW 7 kph)
- 10SM
04:15
Overcast
48°F / 9°C 45°F / 7°C 87% 30.09 in
(1019 mb)
SW 3.5 mph
(SW 6 kph)
- 10SM
03:55
Overcast
48°F / 9°C 43°F / 6°C 82% 30.06 in
(1018 mb)
Calm - 10SM
03:35
Overcast
48°F / 9°C 45°F / 7°C 87% 30.06 in
(1018 mb)
Calm - 10SM
03:15
Overcast
48°F / 9°C 45°F / 7°C 87% 30.06 in
(1018 mb)
W 8.1 mph
(W 13 kph)
- 8SM
02:55
Overcast
48°F / 9°C 45°F / 7°C 87% 30.06 in
(1018 mb)
NW 5.8 mph
(NW 9 kph)
- 10SM
02:35
Overcast
48°F / 9°C 45°F / 7°C 87% 30.06 in
(1018 mb)
WNW 9.2 mph
(WNW 15 kph)
- 10SM
02:15
Overcast
48°F / 9°C 45°F / 7°C 87% 30.06 in
(1018 mb)
WNW 6.9 mph
(WNW 11 kph)
- 10SM
01:55
Overcast
48°F / 9°C 45°F / 7°C 87% 30.04 in
(1017 mb)
NW 8.1 mph
(NW 13 kph)
- 10SM
01:35
Overcast
50°F / 10°C 46°F / 8°C 88% 30.04 in
(1017 mb)
WNW 9.2 mph
(WNW 15 kph)
- 10SM
01:15
Overcast
50°F / 10°C 46°F / 8°C 88% 30.04 in
(1017 mb)
NW 9.2 mph
(NW 15 kph)
- 10SM
00:55
Overcast
52°F / 11°C 46°F / 8°C 82% 30.04 in
(1017 mb)
NW 6.9 mph
(NW 11 kph)
0.01 in
(0.25 mm)
10SM
00:35
Overcast
52°F / 11°C 48°F / 9°C 88% 30.01 in
(1016 mb)
NW 5.8 mph
(NW 9 kph)
0.01 in
(0.25 mm)
10SM
00:15
Overcast
52°F / 11°C 48°F / 9°C 88% 30.01 in
(1016 mb)
W 4.6 mph
(W 7 kph)
0.01 in
(0.25 mm)
3SM
Time Weather Temperature Dewpoint Humidity Pressure Winds Precip Visibility


Weather for websites

WeatherForYou.com, LLC is not responsible for any damages or problems caused by this service. Current weather conditions are obtained from the closest station including government and personal stations which may have varying degrees of accuracy. Weather forecasts are derived from the NOAA NDFD. Like all things, this site belongs to Jesus Christ... He just trusts me to maintain it. If you have any questions or comments email webmaster@weatherforyou.com

Copyright © 2015, WeatherForYou.com LLC. All rights reserved.